VE3WXA Weather Reports


time (UTC)temp
C
wind
direction
speed
KPH
gust
KPH
rain 1hr
cm
rain 24hr
cm
rain mn
cm
humidity
%
barometer
mb
20260503194202 15 260 3.2 9.7 0.00 0.00 0.00 46 1008.2
20260503193703 15 269 4.8 9.7 0.00 0.00 0.00 46 1008.3
20260503193202 15 308 3.2 9.7 0.00 0.00 0.00 46 1008.5
20260503192702 15 24 3.2 11.3 0.00 0.00 0.00 45 1008.5
20260503192203 16 269 3.2 11.3 0.00 0.00 0.00 45 1008.6
20260503191702 16 5 3.2 11.3 0.00 0.00 0.00 45 1008.4
20260503191203 16 284 3.2 11.3 0.00 0.00 0.00 46 1008.4
20260503190702 16 344 3.2 11.3 0.00 0.00 0.00 46 1008.5
20260503190444 16 319 3.2 16.1 0.00 0.00 0.00 45 1008.5
20260503185702 15 200 3.2 16.1 0.00 0.00 0.00 46 1008.5
20260503185201 15 310 3.2 16.1 0.00 0.00 0.00 46 1008.6
20260503184944 15 0 3.2 16.1 0.00 0.00 0.00 46 1008.9
20260503184202 16 273 3.2 9.7 0.00 0.00 0.00 46 1008.9
20260503183703 16 308 3.2 8.0 0.00 0.00 0.00 47 1008.8
20260503183445 16 289 3.2 8.0 0.00 0.00 0.00 46 1008.7
20260503182947 16 320 3.2 9.7 0.00 0.00 0.00 47 1008.8
20260503182202 15 124 3.2 9.7 0.00 0.00 0.00 47 1008.8
20260503181703 15 347 3.2 8.0 0.00 0.00 0.00 48 1009.0
20260503181450 15 319 3.2 12.9 0.00 0.00 0.00 47 1009.1
20260503180948 15 342 3.2 12.9 0.00 0.00 0.00 47 1009.1
20260503180202 15 208 3.2 12.9 0.00 0.00 0.00 48 1009.2
20260503175702 15 254 6.4 14.5 0.00 0.00 0.00 50 1009.2
20260503175202 15 183 6.4 14.5 0.00 0.00 0.00 50 1009.4
20260503174702 15 137 3.2 12.9 0.00 0.00 0.00 48 1009.5
20260503174201 15 283 4.8 14.5 0.00 0.00 0.00 47 1009.7
20260503173702 15 282 4.8 14.5 0.00 0.00 0.00 47 1009.7
20260503173202 15 304 4.8 11.3 0.00 0.00 0.00 47 1009.8
20260503172701 15 277 3.2 9.7 0.00 0.00 0.00 46 1009.5
20260503172237 15 287 3.2 11.3 0.00 0.00 0.00 48 1010.1
20260503172226 15 297 3.2 11.3 0.00 0.00 0.00 46 1010.0
20260503171203 15 354 4.8 14.5 0.00 0.00 0.00 47 1010.0
20260503170703 16 231 4.8 17.7 0.00 0.00 0.00 46 1010.0
20260503170203 16 227 4.8 17.7 0.00 0.00 0.00 45 1009.3
20260503160202 16 276 3.2 12.9 0.00 0.00 0.00 46 1010.0
20260503150702 15 207 4.8 14.5 0.00 0.00 0.00 49 1009.9
20260503150202 15 226 3.2 14.5 0.00 0.00 0.00 48 1009.9
20260503131202 8 214 6.4 14.5 0.00 0.00 0.00 61 1010.9
20260503130702 8 216 6.4 14.5 0.00 0.00 0.00 62 1011.1
20260503130202 8 199 6.4 14.5 0.00 0.00 0.00 62 1011.0
20260503120202 4 234 6.4 14.5 0.00 0.00 0.00 72 1012.5
20260503110701 3 0 1.6 6.4 0.00 0.00 0.00 73 1012.5
20260503110202 3 237 1.6 6.4 0.00 0.00 0.00 74 1012.5
20260503100202 2 0 0.0 3.2 0.00 0.00 0.00 79 1012.8
20260503090202 0 0 0.0 4.8 0.00 0.00 0.00 84 1013.6
20260503081203 1 0 0.0 4.8 0.00 0.00 0.00 81 1013.7
20260503080703 1 273 0.0 4.8 0.00 0.00 0.00 81 1013.7
20260503080202 1 302 0.0 3.2 0.00 0.00 0.00 81 1013.8
20260503072202 2 182 1.6 6.4 0.00 0.00 0.00 78 1013.6
20260503071702 2 172 1.6 6.4 0.00 0.00 0.00 77 1013.5
20260503071202 2 229 3.2 9.7 0.00 0.00 0.00 76 1013.5
20260503070703 2 224 3.2 11.3 0.00 0.00 0.00 75 1013.4
20260503070202 3 194 4.8 11.3 0.00 0.00 0.00 74 1013.3
20260503060203 2 213 3.2 11.3 0.00 0.00 0.00 75 1013.8
20260503054701 2 199 3.2 9.7 0.00 0.00 0.00 76 1014.1
20260503054201 2 203 3.2 9.7 0.00 0.00 0.00 76 1014.1
20260503053702 2 216 3.2 9.7 0.00 0.00 0.00 75 1014.1
20260503053448 2 223 3.2 9.7 0.00 0.00 0.00 75 1014.2
20260503052701 2 227 3.2 8.0 0.00 0.00 0.00 75 1014.3
20260503052202 2 161 3.2 9.7 0.00 0.00 0.00 75 1014.2
20260503051702 2 242 3.2 9.7 0.00 0.00 0.00 75 1014.3
20260503051202 2 221 3.2 6.4 0.00 0.00 0.00 74 1014.3
20260503050702 2 215 3.2 6.4 0.00 0.00 0.00 74 1014.3
20260503050202 2 236 3.2 6.4 0.00 0.00 0.00 74 1014.4
20260503045702 2 187 3.2 6.4 0.00 0.00 0.00 74 1014.4
20260503045448 2 219 3.2 8.0 0.00 0.00 0.00 73 1014.4
20260503044702 2 212 3.2 8.0 0.00 0.00 0.00 73 1014.5
20260503044450 2 220 3.2 8.0 0.00 0.00 0.00 73 1014.5
20260503043702 2 212 3.2 6.4 0.00 0.00 0.00 73 1014.5
20260503043202 2 233 1.6 8.0 0.00 0.00 0.00 73 1014.6
20260503042702 2 215 1.6 8.0 0.00 0.00 0.00 73 1014.6
20260503042202 2 205 3.2 6.4 0.00 0.00 0.00 73 1014.7
20260503041702 2 223 3.2 6.4 0.00 0.00 0.00 72 1014.6
20260503041203 2 229 3.2 6.4 0.00 0.00 0.00 72 1014.7
20260503040703 2 211 3.2 6.4 0.00 0.00 0.00 72 1014.7
20260503040202 2 242 3.2 6.4 0.00 0.00 0.00 72 1014.7
20260503035701 2 222 3.2 8.0 0.00 0.00 0.00 72 1014.7
20260503035202 2 195 1.6 8.0 0.00 0.00 0.00 72 1014.7
20260503034702 2 240 1.6 6.4 0.00 0.00 0.00 73 1014.8
20260503034202 2 219 1.6 6.4 0.00 0.00 0.00 73 1014.8
20260503033702 2 228 1.6 4.8 0.00 0.00 0.00 73 1015.0
20260503033202 2 247 0.0 4.8 0.00 0.00 0.00 73 1015.1
20260503032702 2 0 0.0 6.4 0.00 0.00 0.00 73 1015.1
20260503032201 2 250 1.6 6.4 0.00 0.00 0.00 73 1015.1
20260503031948 2 0 0.0 3.2 0.00 0.00 0.00 74 1015.1
20260503031201 2 0 0.0 3.2 0.00 0.00 0.00 74 1015.3
20260503030702 2 0 0.0 3.2 0.00 0.00 0.00 73 1015.3
20260503030450 2 0 0.0 3.2 0.00 0.00 0.00 73 1015.3
20260503025701 2 0 0.0 3.2 0.00 0.00 0.00 73 1015.5
20260503025450 2 217 0.0 1.6 0.00 0.00 0.00 73 1015.5
20260503024702 2 0 0.0 3.2 0.00 0.00 0.00 73 1015.5
20260503024449 2 0 0.0 4.8 0.00 0.00 0.00 73 1015.5
20260503023702 2 122 0.0 4.8 0.00 0.00 0.00 72 1015.6
20260503023202 2 0 0.0 3.2 0.00 0.00 0.00 72 1015.7
20260503022703 2 0 0.0 4.8 0.00 0.00 0.00 72 1015.6
20260503022201 2 0 0.0 4.8 0.00 0.00 0.00 72 1015.6
20260503021701 2 0 0.0 4.8 0.00 0.00 0.00 72 1015.7
20260503021201 2 0 0.0 3.2 0.00 0.00 0.00 72 1015.7
20260503020701 2 0 1.6 6.4 0.00 0.00 0.00 71 1015.6
20260503020242 2 229 1.6 6.4 0.00 0.00 0.00 71 1015.5
20260503020227 3 0 1.6 6.4 0.00 0.00 0.00 71 1015.5
20260503015205 2 227 0.0 6.4 0.00 0.00 0.00 72 1015.6
20260503014705 2 243 0.0 4.8 0.00 0.00 0.00 73 1015.8
20260503014444 2 217 0.0 3.2 0.00 0.00 0.00 72 1015.7
20260503013702 3 0 0.0 4.8 0.00 0.00 0.00 72 1015.7
20260503013202 3 0 1.6 6.4 0.00 0.00 0.00 71 1015.6
20260503012947 3 0 0.0 6.4 0.00 0.00 0.00 71 1015.6
20260503012202 3 0 0.0 3.2 0.00 0.00 0.00 72 1015.8
20260503012019 3 0 0.0 3.2 0.00 0.00 0.00 69 1015.8
20260503012014 3 0 0.0 3.2 0.00 0.00 0.00 71 1015.8
20260503010702 4 0 0.0 3.2 0.00 0.00 0.00 68 1015.8
20260503010202 4 0 1.6 4.8 0.00 0.00 0.00 67 1015.6
20260503005702 5 248 1.6 4.8 0.00 0.00 0.00 64 1015.4
20260503005202 5 230 1.6 4.8 0.00 0.00 0.00 64 1015.4
20260503004703 4 224 0.0 6.4 0.00 0.00 0.00 63 1015.5
20260503004443 5 243 0.0 6.4 0.00 0.00 0.00 63 1015.7
20260503003703 5 0 0.0 1.6 0.00 0.00 0.00 62 1015.7
20260503003202 5 0 0.0 1.6 0.00 0.00 0.00 60 1015.7
20260503002944 5 0 0.0 0.0 0.00 0.00 0.00 59 1015.7
20260503002201 6 0 0.0 1.6 0.00 0.00 0.00 58 1015.6
20260503001702 6 0 0.0 1.6 0.00 0.00 0.00 57 1015.6
20260503001204 6 0 0.0 4.8 0.00 0.00 0.00 56 1015.6
20260503000945 7 0 0.0 4.8 0.00 0.00 0.00 55 1015.4
20260503000203 7 263 1.6 3.2 0.00 0.00 0.00 54 1015.4
20260502235702 7 0 1.6 4.8 0.00 0.00 0.00 54 1015.3
20260502235201 7 0 1.6 4.8 0.00 0.00 0.00 53 1015.2
20260502234944 7 297 1.6 4.8 0.00 0.00 0.00 52 1015.2
20260502234202 7 245 1.6 4.8 0.00 0.00 0.00 53 1015.2
20260502233702 7 294 1.6 6.4 0.00 0.00 0.00 52 1015.3
20260502233202 7 0 1.6 6.4 0.00 0.00 0.00 52 1015.2
20260502232701 7 0 1.6 6.4 0.00 0.00 0.00 53 1015.3
20260502232203 7 128 1.6 8.0 0.00 0.00 0.00 51 1015.4
20260502231702 7 294 3.2 8.0 0.00 0.00 0.00 52 1015.3
20260502231201 7 292 3.2 6.4 0.00 0.00 0.00 51 1015.2
20260502230701 7 303 1.6 6.4 0.00 0.00 0.00 52 1015.2
20260502230202 7 0 1.6 8.0 0.00 0.00 0.00 51 1015.3
20260502225701 7 333 1.6 8.0 0.00 0.00 0.00 51 1015.1
20260502225445 7 201 1.6 8.0 0.00 0.00 0.00 52 1015.0
20260502224702 7 0 1.6 8.0 0.00 0.00 0.00 51 1015.2
20260502224202 7 294 1.6 8.0 0.00 0.00 0.00 52 1015.2
20260502223739 7 312 3.2 9.7 0.00 0.00 0.00 51 1015.2
20260502223729 7 284 3.2 9.7 0.00 0.00 0.00 52 1015.1
20260502222701 8 304 3.2 8.0 0.00 0.00 0.00 51 1015.2
20260502222201 8 297 3.2 9.7 0.00 0.00 0.00 50 1015.1
20260502221701 8 288 3.2 9.7 0.00 0.00 0.00 49 1015.0
20260502221201 8 68 3.2 8.0 0.00 0.00 0.00 51 1015.0
20260502220702 8 336 3.2 8.0 0.00 0.00 0.00 49 1015.0
20260502220201 7 0 3.2 9.7 0.00 0.00 0.00 49 1015.2
20260502215701 8 295 3.2 9.7 0.00 0.00 0.00 50 1015.2
20260502215201 8 280 3.2 6.4 0.00 0.00 0.00 49 1015.2
20260502214701 8 285 3.2 8.0 0.00 0.00 0.00 47 1015.3
20260502214201 8 352 3.2 9.7 0.00 0.00 0.00 47 1015.3
20260502214022 7 239 3.2 11.3 0.00 0.00 0.00 47 1015.1
20260502213725 7 352 3.2 11.3 0.00 0.00 0.00 48 1015.1
20260502212736 8 294 3.2 9.7 0.00 0.00 0.00 47 1015.1
20260502212726 8 277 3.2 11.3 0.00 0.00 0.00 46 1015.0
20260502211701 8 252 3.2 6.4 0.00 0.00 0.00 48 1015.1
20260502211201 8 46 3.2 6.4 0.00 0.00 0.00 50 1015.2
20260502210701 8 289 3.2 12.9 0.00 0.00 0.00 50 1015.0
20260502210202 8 294 3.2 12.9 0.00 0.00 0.00 47 1015.0
20260502205701 8 311 3.2 9.7 0.00 0.00 0.00 47 1014.9
20260502205201 8 294 3.2 9.7 0.00 0.00 0.00 48 1014.9
20260502204701 8 296 3.2 11.3 0.00 0.00 0.00 48 1014.9
20260502204201 8 42 4.8 11.3 0.00 0.00 0.00 45 1014.9
20260502203701 8 344 4.8 11.3 0.00 0.00 0.00 49 1015.0
20260502203200 8 330 4.8 12.9 0.00 0.00 0.00 49 1015.0
20260502202701 7 288 4.8 12.9 0.00 0.00 0.00 51 1015.0
20260502202200 7 280 3.2 8.0 0.00 0.00 0.00 51 1015.0
20260502201701 7 301 3.2 9.7 0.00 0.00 0.00 50 1015.3
20260502201201 7 273 4.8 12.9 0.00 0.00 0.00 49 1015.3
20260502200950 7 283 4.8 12.9 0.00 0.00 0.00 50 1015.3
20260502200201 7 293 3.2 9.7 0.00 0.00 0.00 51 1015.3
20260502195701 7 287 3.2 11.3 0.00 0.00 0.00 50 1015.4
20260502195201 7 273 3.2 11.3 0.00 0.00 0.00 49 1015.6
20260502194701 7 171 3.2 9.7 0.00 0.00 0.00 48 1015.5